HYPERVIEW 1G (RS66S)

Last updated on Mon Nov 03 2025 00:03:22 GMT+0000 (Coordinated Universal Time)

1 61772U 24199AP 25306.54098836 .00038353 00000+0 84730-3 0 9993 2 61772 97.3270 175.5871 0012903 35.4452 324.7651 15.43670083 99402
UTC large
Height (km)
Speed (km/s)
/
Latitude / Longitude
Inclination (degrees)
Orbital Period (minutes)
Azimuth
Elevation
Range (km)
Doppler Factor

Next 0 passes for location: London (51.5072 / 0.1276)

Sorry there are no passes over London.